Location: Allen Lane School
(37.8198°N, 89.7382°W)
Time: 04:36:41
(UTC+00:00)

Meteor 1-14 Rocket - Pass Details

Date: 01 July 2022
Orbit: 833 x 919 km, 81.3° (Epoch: 14 August)

Event Time Altitude Azimuth Distance (km) Brightness Sun altitude
Rises 09:34:41 0° 175° (S) 3,519 7.1 -11.4°
Reaches altitude 10° 09:37:12 10° 171° (S) 2,572 6.4 -11.0°
Maximum altitude 09:42:55 56° 94° (E) 1,047 5.0 -10.1°
Drops below altitude 10° 09:48:32 10° 18° (NNE) 2,534 7.6 -9.3°
Sets 09:50:59 0° 14° (NNE) 3,462 8.3 -8.9°
